User: anonymous   Login
Location: Caltech
(34.1382°N, 118.1253°W)
Time: 01:49:00
(UTC-07:00)
Language:

Uribyol 2 - Orbit

View from above orbital plane
View from above orbital plane
View from above satellite
View from above satellite

Ground track
Ground track

The orbit data is extracted from the following two-line orbital elements,

1 22828U 93061F   16150.46270856  .00000045  00000-0  34571-4 0  9995
2 22828  98.7431 105.6911 0009502 339.8350  20.2456 14.30590883151070
Epoch (UTC): 29 May 2016 11:06:18
Eccentricity: 0.0009502
inclination: 98.7431°
perigee height: 783 km
apogee height: 796 km
right ascension of ascending node: 105.6911°
argument of perigee: 339.8350°
revolutions per day: 14.30590883
mean anomaly at epoch: 20.2456°
orbit number at epoch: 15107

The dashed part of the orbit path shows where the satellite is in the earth's shadow,  

DLR